This demonstration page uses our WeatherBlox Daily Observations layout. Learn more.

Left ArrowRight Arrow

39.12711, -84.51439

Hourly Observations for October 13, 2016

Temp ( °F °C ) Dew Point ( °F °C ) Humidity (%) Winds ( mph kmh ) Pressure ( in mb ) Visibility ( mi km ) Precip ( " mm )
12:53 am 00:53 Cloudy 65 18.3 56 13.3 73 73 SW 7 11 30.06 1018 10 16 0.00 0.00
1:53 am 01:53 Cloudy 65 18.3 55 12.8 70 70 SW 5 7 30.06 1018 10 16 0.00 0.00
2:53 am 02:53 Cloudy 66 18.9 57 13.9 73 73 W 14 22 30.06 1018 10 16 0.00 0.00
3:20 am 03:20 Cloudy 63 17 59 15 88 88 NW 9 15 30.06 1018 10 16 0.00 0.00
3:48 am 03:48 Cloudy with Light Rain 63 17 61 16 94 94 VRB 6 9 30.06 1018 6 10 0.00 0.03
3:53 am 03:53 Cloudy with Light Rain 62 16.7 60 15.6 93 93 NNW 10 17 30.08 1019 5 8 0.00 0.03
4:19 am 04:19 Cloudy with Light Rain 60 15.6 58 14.4 93 93 NW 8 13 30.09 1019 6 10 0.01 0.25
4:53 am 04:53 Cloudy with Light Rain 59 15 57 13.9 93 93 NW 7 11 30.11 1020 9 14 0.03 0.76
5:13 am 05:13 Cloudy with Light Rain 58 14.4 56 13.3 93 93 NNW 6 9 30.12 1020 9 14 0.00 0.03
5:23 am 05:23 Cloudy with Rain 58 14.4 56 13.3 93 93 NNW 5 7 30.15 1021 7 11 0.02 0.51
5:53 am 05:53 Cloudy with Light Rain 57 13.9 56 13.3 96 96 NW 7 11 30.14 1021 10 16 0.02 0.51
6:53 am 06:53 Cloudy 57 13.9 55 12.8 93 93 NNW 5 7 30.17 1022 10 16 0.00 0.03
7:53 am 07:53 Cloudy with Light Rain 56 13.3 55 12.8 97 97 NNW 10 17 30.20 1023 5 8 0.00 0.03
8:03 am 08:03 Cloudy with Light Rain 55 13 55 13 100 100 NNW 9 15 30.21 1023 7 11 0.00 0.00
8:37 am 08:37 Cloudy 56 13.3 54 12.2 93 93 NNW 8 13 30.21 1023 10 16 0.01 0.25
8:53 am 08:53 Cloudy 56 13.3 54 12.2 93 93 NNW 9 15 30.23 1024 10 16 0.01 0.25
9:31 am 09:31 Cloudy with Rain 55 12.8 53 11.7 93 93 N 12 19 30.27 1025 4 6 0.00 0.03
9:53 am 09:53 Cloudy 55 12.8 53 11.7 93 93 N 12 19 30.26 1025 10 16 0.00 0.03
10:53 am 10:53 Cloudy 56 13.3 51 10.6 84 84 N 9 15 30.26 1025 10 16 0.00 0.00
11:15 am 11:15 Mostly Cloudy 59 15 51 10.6 75 75 N 6 9 30.27 1025 10 16 0.00 0.00
11:53 am 11:53 Mostly Sunny 61 16.1 50 10 67 67 N 9 15 30.27 1025 10 16 0.00 0.00
12:53 pm 12:53 Mostly Cloudy 61 16.1 49 9.4 65 65 NE 10 17 30.27 1025 10 16 0.00 0.00
1:53 pm 13:53 Cloudy 61 16.1 48 8.9 63 63 NNE 8 13 30.27 1025 10 16 0.00 0.00
2:53 pm 14:53 Mostly Cloudy 62 16.7 47 8.3 58 58 VRB 3 6 30.26 1025 10 16 0.00 0.00
3:53 pm 15:53 Partly Cloudy 65 18.3 46 7.8 51 51 Calm 30.25 1024 10 16 0.00 0.00
4:53 pm 16:53 Partly Cloudy 65 18.3 45 7.2 49 49 Calm 30.24 1024 10 16 0.00 0.00
5:53 pm 17:53 Partly Cloudy 64 17.8 44 6.7 48 48 NNW 6 9 30.24 1024 10 16 0.00 0.00
6:53 pm 18:53 Partly Cloudy 58 14.4 49 9.4 72 72 Calm 30.26 1025 10 16 0.00 0.00
7:53 pm 19:53 Clear 51 10.6 49 9.4 92 92 Calm 30.27 1025 10 16 0.00 0.00
8:53 pm 20:53 Clear 49 9.4 48 8.9 97 97 NE 3 6 30.29 1026 10 16 0.00 0.00
9:53 pm 21:53 Clear 47 8.3 47 8.3 100 100 Calm 30.29 1026 10 16 0.00 0.00
10:53 pm 22:53 Clear 46 7.8 46 7.8 100 100 Calm 30.30 1026 10 16 0.00 0.00
11:53 pm 23:53 Clear 45 7.2 45 7.2 100 100 Calm 30.31 1026 10 16 0.00 0.00

Powered by AerisWeather